User: anonymous   Login
Location: Brno
(49.2000°N, 16.6330°E)
Time: 16:46:06
(UTC+01:00)
Language:

ISS - Orbit

View from above orbital plane
View from above orbital plane
View from above satellite
View from above satellite

Ground track
Ground track

The orbit data is extracted from the following two-line orbital elements,

1 25544U 98067A   14353.19779183  .00029314  00000-0  47573-3 0  5894
2 25544 051.6484 262.0935 0007781 146.7638 008.4419 15.52461938920039
Epoch (UTC): 19 December 2014 04:44:49
Eccentricity: 0.0007781
inclination: 51.6484°
perigee height: 404 km
apogee height: 415 km
right ascension of ascending node: 262.0935°
argument of perigee: 146.7638°
revolutions per day: 15.52461938
mean anomaly at epoch: 8.4419°
orbit number at epoch: 92003

The dashed part of the orbit path shows where the satellite is in the earth's shadow,  

DLR